Location: Hard
(49.9417°N, 12.0858°E)
Time: 04:19:53
(UTC+00:00)

STARLINK-1301 - Pass Details

Date: 07 June 2020
Orbit: 548 x 551 km, 53.0° (Epoch: 10 July)

Event Time Altitude Azimuth Distance (km) Brightness Sun altitude
Exits shadow 00:12:06 31° 206° (SSW) 978 4.3 -16.0°
Drops below altitude 10° 00:17:48 10° 72° (ENE) 1,846 6.7 -15.8°
Enters shadow 01:16:33 -66° 251° (WSW) 12,208 10.4 -12.1°
Maximum altitude 01:53:28 64° 348° (NNW) 623 4.1 -8.8°
